G7394 Weather Reports


time (UTC)temp
F
wind
direction
speed
knots
gust
knots
rain 1hr
in
rain 24hr
in
rain mn
in
humidity
%
barometer
mb
20260510044520 57 0.0 0.0 0.00 0.02 0.00 85 1010.6
20260510043516 58 0.0 0.0 0.00 0.02 0.00 85 1010.8
20260510042531 58 35 0.0 1.7 0.00 0.02 0.00 83 1010.7
20260510041527 59 20 0.0 0.9 0.00 0.02 0.00 82 1010.7
20260510040522 59 165 0.9 2.6 0.00 0.02 0.00 82 1010.5
20260510035518 59 27 0.0 1.7 0.00 0.02 0.02 82 1010.5
20260510034533 59 38 0.0 0.9 0.00 0.02 0.02 81 1010.5
20260510033529 60 0.0 0.9 0.00 0.02 0.02 80 1010.4
20260510032524 60 0.0 0.0 0.00 0.02 0.02 78 1010.4
20260510031519 61 0.0 0.0 0.00 0.02 0.02 76 1010.4
20260510030535 61 0.0 0.9 0.00 0.02 0.02 75 1010.4
20260510025530 61 0.0 0.0 0.00 0.02 0.02 74 1010.3
20260510024525 62 0.0 0.9 0.00 0.02 0.02 73 1010.3
20260510023521 62 0.0 0.0 0.00 0.02 0.02 72 1010.1
20260510022516 63 0.0 0.0 0.00 0.02 0.02 70 1010.2
20260510021532 64 0.0 0.0 0.00 0.02 0.02 68 1010.1
20260510020527 64 0.0 0.0 0.00 0.02 0.02 68 1010.0
20260510015523 63 305 0.0 0.9 0.00 0.02 0.02 68 1009.9
20260510014519 63 0.0 0.9 0.00 0.02 0.02 68 1010.0
20260510013554 63 19 0.0 0.9 0.00 0.02 0.02 68 1009.7
20260510012530 63 0.0 0.9 0.00 0.02 0.02 67 1009.5
20260510011525 64 0.0 0.0 0.00 0.02 0.02 66 1009.2
20260510010520 64 0.0 0.0 0.00 0.02 0.02 65 1009.1
20260510005536 65 0.0 0.9 0.00 0.02 0.02 64 1009.1
20260510004531 66 0.0 0.0 0.00 0.02 0.02 62 1009.0
20260510003526 66 0.0 0.0 0.00 0.02 0.02 60 1008.9
20260510002522 67 0.0 0.0 0.00 0.02 0.02 59 1008.9
20260510001518 68 0.0 0.0 0.00 0.02 0.02 57 1008.8
20260510000553 69 0.0 0.9 0.00 0.02 0.02 56 1008.8
20260509235528 71 0.0 0.0 0.00 0.02 0.02 53 1008.7
20260509234524 72 16 0.0 1.7 0.00 0.02 0.02 50 1008.6
20260509233519 72 139 0.0 1.7 0.00 0.02 0.02 49 1008.6
20260509232535 72 298 0.9 2.6 0.00 0.02 0.02 49 1008.5
20260509231550 73 220 0.9 2.6 0.00 0.02 0.02 47 1008.5
20260509230526 73 291 0.9 2.6 0.00 0.02 0.02 47 1008.4
20260509225521 73 266 0.9 2.6 0.00 0.02 0.02 47 1008.5
20260509224516 74 231 1.7 5.2 0.00 0.02 0.02 46 1008.5
20260509223551 73 169 2.6 5.2 0.00 0.02 0.02 47 1008.5
20260509222547 73 277 0.9 3.5 0.00 0.02 0.02 48 1008.6
20260509221542 73 274 0.9 3.5 0.00 0.02 0.02 47 1008.6
20260509220518 73 294 0.9 2.6 0.00 0.02 0.02 47 1008.6
20260509215533 74 257 1.7 5.2 0.00 0.02 0.02 47 1008.5
20260509214528 73 261 0.9 1.7 0.00 0.02 0.02 47 1008.4
20260509213524 75 249 1.7 2.6 0.00 0.02 0.02 44 1008.5
20260509212519 75 268 2.6 4.3 0.00 0.02 0.02 45 1008.5
20260509211535 74 166 1.7 5.2 0.00 0.02 0.02 45 1008.5
20260509210530 73 187 1.7 5.2 0.00 0.02 0.02 46 1008.5
20260509205525 73 230 1.7 6.1 0.00 0.02 0.02 46 1008.4
20260509204541 73 257 2.6 5.2 0.00 0.02 0.02 47 1008.4
20260509203516 73 251 2.6 5.2 0.00 0.02 0.02 46 1008.2
20260509202531 72 217 1.7 3.5 0.00 0.02 0.02 48 1008.3
20260509201527 72 199 1.7 5.2 0.00 0.02 0.02 48 1008.5
20260509200543 73 294 2.6 4.3 0.00 0.02 0.02 47 1008.7
20260509195518 72 250 1.7 4.3 0.00 0.02 0.02 48 1008.7
20260509194534 71 173 1.7 4.3 0.00 0.02 0.02 50 1008.9
20260509193529 70 208 1.7 4.3 0.00 0.02 0.02 52 1009.3
20260509192525 69 269 2.6 7.8 0.01 0.02 0.02 53 1009.4
20260509191520 69 270 1.7 5.2 0.02 0.02 0.02 55 1009.5
20260509190515 68 184 1.7 7.0 0.02 0.02 0.02 56 1009.5
20260509185531 68 171 2.6 7.8 0.02 0.02 0.02 59 1009.4
20260509184526 67 177 0.9 3.5 0.02 0.02 0.02 62 1009.5
20260509183521 67 270 1.7 3.5 0.02 0.02 0.02 61 1009.9
20260509182517 68 186 1.7 4.3 0.00 0.00 0.00 54 1010.0
20260509181533 68 216 2.6 7.8 0.00 0.00 0.00 52 1010.1
20260509180528 69 217 2.6 8.7 0.00 0.00 0.00 52 1010.4
20260509175524 70 190 1.7 4.3 0.00 0.00 0.00 50 1010.4
20260509174519 69 246 0.9 4.3 0.00 0.00 0.00 50 1010.4
20260509173535 70 181 2.6 6.1 0.00 0.00 0.00 49 1010.3
20260509172530 71 209 4.3 9.6 0.00 0.00 0.00 47 1010.4
20260509171526 69 206 2.6 7.0 0.00 0.00 0.00 49 1010.5
20260509170521 68 240 1.7 4.3 0.00 0.00 0.00 51 1010.5
20260509165517 68 199 2.6 8.7 0.00 0.00 0.00 51 1010.7
20260509164553 68 263 1.7 7.0 0.00 0.00 0.00 52 1010.9
20260509163527 67 253 2.6 6.1 0.00 0.00 0.00 52 1010.9
20260509162542 67 149 1.7 5.2 0.00 0.00 0.00 52 1010.8
20260509161517 67 190 1.7 5.2 0.00 0.00 0.00 52 1010.9
20260509160533 66 176 2.6 7.8 0.00 0.00 0.00 54 1010.9
20260509155527 65 190 2.6 4.3 0.00 0.00 0.00 54 1011.2
20260509154522 66 206 1.7 6.1 0.00 0.00 0.00 54 1011.2
20260509153517 66 197 2.6 5.2 0.00 0.00 0.00 54 1011.3
20260509152613 65 198 2.6 6.1 0.00 0.00 0.00 55 1011.1
20260509151548 64 159 3.5 7.8 0.00 0.00 0.00 55 1011.3
20260509150524 64 170 2.6 6.1 0.00 0.00 0.00 55 1011.3
20260509145519 64 240 2.6 7.0 0.00 0.00 0.00 57 1011.5
20260509144555 63 168 2.6 6.1 0.00 0.00 0.00 58 1011.6
20260509143610 62 165 3.5 10.4 0.00 0.00 0.00 59 1011.8
20260509142525 61 171 1.7 7.0 0.00 0.00 0.00 60 1011.9
20260509141520 60 201 2.6 5.2 0.00 0.00 0.00 62 1011.9
20260509140556 60 159 2.6 5.2 0.00 0.00 0.00 63 1011.9
20260509135531 59 185 1.7 5.2 0.00 0.00 0.00 64 1011.8
20260509134527 59 152 1.7 5.2 0.00 0.00 0.00 64 1011.9
20260509133542 59 223 0.9 3.5 0.00 0.00 0.00 64 1012.1
20260509132517 59 274 1.7 6.1 0.00 0.00 0.00 63 1012.0
20260509131533 59 147 2.6 6.1 0.00 0.00 0.00 63 1011.9
20260509130529 59 157 3.5 8.7 0.00 0.00 0.00 63 1011.8
20260509125524 58 164 2.6 6.1 0.00 0.00 0.00 63 1011.9
20260509124519 58 181 2.6 6.1 0.00 0.00 0.00 63 1011.9
20260509123535 58 162 2.6 7.8 0.00 0.00 0.00 62 1011.9
20260509122530 58 174 3.5 7.8 0.00 0.00 0.00 61 1011.9
20260509121525 58 159 2.6 7.8 0.00 0.00 0.00 60 1012.0
20260509120521 58 175 1.7 5.2 0.00 0.00 0.00 60 1012.0
20260509115516 58 162 3.5 7.0 0.00 0.00 0.00 60 1011.9
20260509114531 58 160 1.7 5.2 0.00 0.00 0.00 59 1012.0
20260509113527 58 149 2.6 8.7 0.00 0.00 0.00 58 1011.9
20260509112522 58 161 2.6 7.8 0.00 0.00 0.00 57 1011.7
20260509111517 58 161 2.6 6.1 0.00 0.00 0.00 57 1011.5
20260509110553 58 158 2.6 6.1 0.00 0.00 0.00 57 1011.7
20260509105529 58 119 0.9 3.5 0.00 0.00 0.00 56 1011.7
20260509104524 58 154 0.9 4.3 0.00 0.00 0.00 53 1011.6
20260509103519 58 162 1.7 4.3 0.00 0.00 0.00 52 1011.5
20260509102535 58 155 1.7 5.2 0.00 0.00 0.00 52 1011.5
20260509101551 58 152 1.7 3.5 0.00 0.00 0.00 52 1011.4
20260509100526 58 173 1.7 5.2 0.00 0.00 0.00 51 1011.3
20260509095521 59 151 0.9 2.6 0.00 0.00 0.00 50 1011.2
20260509094537 59 140 0.9 2.6 0.00 0.00 0.00 49 1011.2
20260509093532 59 141 1.7 3.5 0.00 0.00 0.00 49 1011.3
20260509092528 59 171 0.9 3.5 0.00 0.00 0.00 49 1011.4
20260509091523 59 154 0.9 3.5 0.00 0.00 0.00 48 1011.4
20260509090518 59 158 1.7 4.3 0.00 0.00 0.00 48 1011.5
20260509085534 59 134 1.7 5.2 0.00 0.00 0.00 48 1011.6
20260509084550 59 172 1.7 6.1 0.00 0.00 0.00 49 1011.5
20260509083525 59 162 1.7 5.2 0.00 0.00 0.00 49 1011.7
20260509082520 59 156 1.7 5.2 0.00 0.00 0.00 51 1011.8
20260509081516 59 150 1.7 5.2 0.00 0.00 0.00 53 1011.9
20260509080531 58 139 2.6 7.8 0.00 0.00 0.00 55 1012.0
20260509075526 58 161 2.6 6.1 0.00 0.00 0.00 57 1012.1
20260509074522 58 146 1.7 2.6 0.00 0.00 0.00 56 1012.1
20260509073518 58 162 1.7 5.2 0.00 0.00 0.00 56 1012.2
20260509072553 58 181 1.7 5.2 0.00 0.00 0.00 55 1012.2
20260509071529 58 147 1.7 4.3 0.00 0.00 0.00 54 1012.3
20260509070524 58 165 1.7 3.5 0.00 0.00 0.00 54 1012.2
20260509065520 58 155 1.7 4.3 0.00 0.00 0.00 53 1012.4
20260509064515 58 161 2.6 8.7 0.00 0.00 0.00 52 1012.4
20260509063530 58 142 0.9 5.2 0.00 0.00 0.00 52 1012.5
20260509062526 58 158 0.9 2.6 0.00 0.00 0.00 52 1012.5
20260509061521 58 130 1.7 3.5 0.00 0.00 0.00 51 1012.5
20260509060516 58 152 0.9 5.2 0.00 0.00 0.00 50 1012.5
20260509055552 58 154 1.7 3.5 0.00 0.00 0.00 50 1012.6
20260509054528 58 144 1.7 4.3 0.00 0.00 0.00 50 1012.6
20260509053523 58 165 0.9 2.6 0.00 0.00 0.00 50 1012.7
20260509052519 58 137 1.7 4.3 0.00 0.00 0.00 49 1012.7
20260509051534 58 164 0.9 4.3 0.00 0.00 0.00 49 1012.6
20260509050530 58 136 0.9 3.5 0.00 0.00 0.00 50 1012.6
20260509045525 58 150 1.7 4.3 0.00 0.00 0.00 50 1012.7